Tracking 19795 objects as of 20-Jul-2019
HD Live streaming from Space Station
objects crossing your sky now

ARIANE 3 DEB

Track ARIANE 3 DEB now!


NORAD ID: 33538
Int'l Code: 1988-081N
Perigee: 502.5 km
Apogee: 36,163.0 km
Inclination: 6.8 °
Period: 644.0 minutes
Semi major axis: 24703 km
RCS: 0.0238 m2 (small)
Launch date: September 8, 1988
Source: France (FR)
Launch site: FRENCH GUIANA (FRGUI)

Note: This is SATELLITE DEBRIS
aabbcc
Your satellite tracking list
Your tracking list is empty




NASA's NSSDC Master Catalog

Two Line Element Set (TLE):
1 33538U 88081N   19200.55725168 -.00000052 +00000-0 +32649-3 0  9993
2 33538 006.8405 234.0740 7217626 223.6472 271.1755 02.23592994113912
Source of the keplerian elements: AFSPC